Corpus Christi, Texas Weather Center

Moon Phase Calendar



Online Cameras

 


      

Current Conditions in Ingleside
11/30/2022 11:53:49 AM

61°F
Feels Like 59
Clouds
Humidity
55%
Pressure
30.24"
Wind
29.9 mph (N)
Dew Point
44°F
UV Index
5/10 (Moderate)
Visibility
6 mi

Hourly Forecast

Date & Time Wed, Nov 30
11:00 AM
Wed, Nov 30
12:00 PM
Wed, Nov 30
1:00 PM
Wed, Nov 30
2:00 PM
Wed, Nov 30
3:00 PM
Wed, Nov 30
4:00 PM
Wed, Nov 30
5:00 PM
Wed, Nov 30
6:00 PM
Wed, Nov 30
7:00 PM
Wed, Nov 30
8:00 PM
Wed, Nov 30
9:00 PM
Wed, Nov 30
10:00 PM
Wed, Nov 30
11:00 PM
Thu, Dec 1
12:00 AM
Thu, Dec 1
1:00 AM
Thu, Dec 1
2:00 AM
Thu, Dec 1
3:00 AM
Thu, Dec 1
4:00 AM
Thu, Dec 1
5:00 AM
Thu, Dec 1
6:00 AM
Thu, Dec 1
7:00 AM
Thu, Dec 1
8:00 AM
Thu, Dec 1
9:00 AM
Thu, Dec 1
10:00 AM
Thu, Dec 1
11:00 AM
Thu, Dec 1
12:00 PM
Thu, Dec 1
1:00 PM
Thu, Dec 1
2:00 PM
Thu, Dec 1
3:00 PM
Thu, Dec 1
4:00 PM
Thu, Dec 1
5:00 PM
Thu, Dec 1
6:00 PM
Thu, Dec 1
7:00 PM
Thu, Dec 1
8:00 PM
Thu, Dec 1
9:00 PM
Thu, Dec 1
10:00 PM
Thu, Dec 1
11:00 PM
Fri, Dec 2
12:00 AM
Fri, Dec 2
1:00 AM
Fri, Dec 2
2:00 AM
Fri, Dec 2
3:00 AM
Fri, Dec 2
4:00 AM
Fri, Dec 2
5:00 AM
Fri, Dec 2
6:00 AM
Fri, Dec 2
7:00 AM
Fri, Dec 2
8:00 AM
Fri, Dec 2
9:00 AM
Fri, Dec 2
10:00 AM
Condition
Clouds

Clouds

Clouds

Clouds

Clouds

Clouds

Clear

Clouds

Clouds

Clouds

Clouds

Clouds

Clouds

Clouds

Clouds

Clouds

Clouds

Clouds

Clouds

Clouds

Clouds

Clouds

Clouds

Clouds

Clouds

Clouds

Clouds

Clouds

Clouds

Rain

Clouds

Clouds

Clouds

Clouds

Clouds

Rain

Rain

Rain

Rain

Clouds

Clouds

Clouds

Clouds

Clouds

Clouds

Clouds

Clouds

Clouds
Temperature 60°F61°F61°F62°F62°F63°F64°F63°F63°F63°F62°F62°F62°F62°F62°F62°F61°F61°F61°F62°F63°F64°F66°F68°F69°F69°F69°F69°F70°F70°F70°F70°F71°F71°F71°F72°F72°F72°F72°F72°F72°F72°F71°F70°F69°F69°F70°F72°F
Feels Like 59°F59°F59°F60°F61°F62°F62°F62°F61°F61°F61°F61°F61°F61°F61°F61°F60°F60°F60°F61°F62°F64°F66°F68°F69°F69°F70°F70°F70°F70°F71°F71°F72°F72°F72°F73°F73°F73°F73°F73°F73°F73°F72°F71°F70°F70°F71°F73°F
Cloudiness 36%40%33%26%20%12%6%21%100%100%98%98%92%90%91%92%95%96%96%96%90%68%71%77%80%84%100%100%100%100%100%100%100%100%100%100%96%90%78%42%29%23%18%15%23%40%46%54%
Visibility 6 mi6 mi6 mi6 mi6 mi6 mi6 mi6 mi6 mi6 mi6 mi6 mi6 mi6 mi6 mi6 mi6 mi6 mi6 mi6 mi6 mi6 mi6 mi6 mi6 mi6 mi6 mi6 mi6 mi6 mi6 mi6 mi6 mi6 mi6 mi6 mi6 mi6 mi6 mi6 mi6 mi6 mi6 mi5 mi6 mi6 mi6 mi6 mi
Precipitation 0%0%0%0%0%0%0%0%0%0%0%0%0%0%0%0%0%0%0%0%0%0%0%0%0%0%0%0%0%20%0%0%14%25%25%33%33%33%44%41%35%31%18%9%0%0%0%0%
Humidity 54%55%54%52%52%51%51%52%54%56%58%60%63%65%66%67%68%70%72%74%76%77%76%76%78%81%83%85%86%88%90%90%90%90%91%92%93%93%94%94%94%95%95%97%98%97%94%90%
Dew Point 44°F44°F44°F44°F45°F45°F46°F46°F46°F46°F47°F48°F49°F50°F50°F51°F51°F51°F52°F53°F55°F57°F59°F60°F61°F63°F64°F64°F65°F66°F67°F67°F67°F68°F69°F69°F69°F70°F70°F70°F70°F70°F70°F69°F69°F68°F68°F69°F
Pressure 30.24"30.24"30.24"30.24"30.21"30.21"30.21"30.24"30.27"30.27"30.27"30.27"30.3"30.27"30.27"30.27"30.24"30.24"30.24"30.24"30.24"30.24"30.24"30.27"30.24"30.21"30.18"30.18"30.15"30.15"30.12"30.12"30.15"30.15"30.15"30.15"30.12"30.12"30.09"30.09"30.06"30.06"30.06"30.09"30.09"30.12"30.12"30.12"
Wind Speed 23.3 mph22.6 mph22.1 mph20.9 mph19.9 mph19 mph19 mph18.6 mph17.7 mph16.8 mph16.4 mph15.5 mph13.8 mph13 mph12.4 mph12.1 mph12.7 mph13.5 mph14.4 mph15.6 mph16.5 mph15.5 mph16.3 mph16.4 mph15.6 mph15.3 mph14.5 mph14.7 mph14.7 mph15 mph15.7 mph16.3 mph16.7 mph17 mph16.1 mph15.6 mph15 mph14.6 mph14.5 mph14 mph12.9 mph11.4 mph9.2 mph7.5 mph6 mph5.2 mph6.5 mph8.6 mph
Wind
Direction
25°
NNE
28°
NNE
29°
NNE
34°
NE
40°
NE
43°
NE
41°
NE
39°
NE
40°
NE
44°
NE
43°
NE
45°
NE
47°
NE
47°
NE
53°
NE
49°
NE
43°
NE
40°
NE
39°
NE
50°
NE
60°
ENE
70°
ENE
74°
ENE
78°
ENE
81°
E
83°
E
81°
E
82°
E
82°
E
84°
E
86°
E
89°
E
96°
E
104°
ESE
109°
ESE
117°
ESE
125°
SE
136°
SE
142°
SE
147°
SSE
153°
SSE
163°
SSE
183°
S
206°
SSW
222°
SW
226°
SW
207°
SSW
186°
S

Daily Forecast

Date High Low Precip. Humidity
Today
Nov 30

Clouds
70 °F
58 °F
3%
55%
Thursday
Dec 1

Rain
72 °F
61 °F
33%
81%
Friday
Dec 2

Rain
74 °F
70 °F
35%
86%
Saturday
Dec 3

Rain
75 °F
69 °F
78%
85%
Sunday
Dec 4

Clouds
74 °F
69 °F
35%
85%
Monday
Dec 5

Clouds
74 °F
71 °F
0%
87%
Tuesday
Dec 6

Rain
75 °F
72 °F
20%
88%
Wednesday
Dec 7

Rain
74 °F
68 °F
48%
88%
Thursday
Dec 8

Rain
70 °F
67 °F
49%
88%
Friday
Dec 9

Rain
74 °F
70 °F
56%
84%
Saturday
Dec 10

Rain
75 °F
60 °F
47%
77%
Sunday
Dec 11

Clouds
61 °F
53 °F
0%
28%
Monday
Dec 12

Clear
61 °F
53 °F
0%
33%
Tuesday
Dec 13

Clear
59 °F
51 °F
0%
32%
Wednesday
Dec 14

Clouds
60 °F
48 °F
0%
36%
Thursday
Dec 15

Clouds
62 °F
59 °F
22%
61%

Temperature 8-14 Day Outlook



Precipitation 8-14 Day Outlook




Quick Links
Corpus Christi, Texas News
Corpus Christi, Texas Photos
Corpus Christi, Texas Videos




About Us
Contact Us
Site Map
Search Site
Advertise With Us
   
CorpusChristi.USGulf.info
THE CORPUS CHRISTI, TEXAS WEBSITE

Copyright 2022, Coastal Town
Privacy    |    Legal